Location: Kawakawa
(35.3830°S, 174.0670°E)
Time: 17:40:31
(UTC+13:00)

SPOT 3 Rocket - Pass Details

Date: 24 January 2019
Orbit: 780 x 794 km, 98.8° (Epoch: 18 October)

Event Time Altitude Azimuth Distance (km) Brightness Sun altitude
Rises 21:59:28 0° 173° (S) 3,312 7.2 -15.1°
Reaches altitude 10° 22:01:51 10° 177° (S) 2,374 6.5 -15.5°
Maximum altitude 22:06:57 54° 253° (WSW) 956 4.3 -16.3°
Drops below altitude 10° 22:11:58 10° 329° (NNW) 2,337 5.9 -17.1°
Sets 22:14:18 0° 333° (NNW) 3,256 6.6 -17.5°
